Oakland, CA

12:55 PM PDT on August 21, 2017 (GMT -0700)
Metro Oakland International

Weather History for KOAK - February, 2013

Change the Weather History Date:

Tuesday, February 5, 2013

  Actual Average Record
Temperature  
Mean Temperature 51 °F 51 °F  
Max Temperature 58 °F 59 °F 74 °F (2011)
Min Temperature 44 °F 43 °F 32 °F (1976)
Degree Days  
Heating Degree Days 14 14  
Month to date heating degree days 65 70  
Since 1 July heating degree days 1602 1729  
Cooling Degree Days 0 0  
Month to date cooling degree days 0 0  
Year to date cooling degree days 0 0  
Growing Degree Days 2 (Base 50)    
Moisture  
Dew Point 49 °F    
Average Humidity 89    
Maximum Humidity 100    
Minimum Humidity 77    
Precipitation  
Precipitation 0.00 in 0.13 in 1.43 in (1969)
Month to date precipitation 0.00 0.56  
Year to date precipitation 0.29 4.55  
Since 1 July precipitation 11.28  
Sea Level Pressure  
Sea Level Pressure 30.13 in    
Wind  
Wind Speed 8 mph (WNW)    
Max Wind Speed 18 mph    
Max Gust Speed 25 mph    
Visibility 10 miles    
Events      
T = Trace of Precipitation, MM = Missing Value Source: NWS Daily Summary

Daily Weather History Graph

Daily Weather History Graph

Search for Another Location

Airport or City:

Trip Planner

Search our weather history database for the weather conditions in past years. The results will help you decide how hot, cold, wet, or windy it might be!

Date:

Astronomy

Feb. 05, 2013 Rise Set
Actual Time 7:08 AM PST 5:37 PM PST
Civil Twilight 6:41 AM PST 6:04 PM PST
Nautical Twilight 6:10 AM PST 6:36 PM PST
Astronomical Twilight 5:39 AM PST 7:06 PM PST
Moon 2:54 AM PST (2/5) 1:02 PM PST (2/5)
Length of Visible Light 11h 23m
Length of Day
10h 28m
Waning Crescent, 25% of the Moon is Illuminated
Feb 5
Waning Crescent
Feb 9
New
Feb 17
First Quarter
Feb 25
Full
Mar 4
Last Quarter

Hourly Weather History & Observations

Time (PST) Temp. Dew Point Humidity Pressure Visibility Wind Dir Wind Speed Gust Speed Precip Events Conditions
12:53 AM 48.0 °F 46.9 °F 96% 30.13 in 10.0 mi WNW 4.6 mph - N/A   Mostly Cloudy
1:53 AM 50.0 °F 48.0 °F 93% 30.13 in 10.0 mi WNW 8.1 mph - N/A   Overcast
2:21 AM 50.0 °F 46.4 °F 87% 30.12 in 10.0 mi WNW 9.2 mph - N/A   Overcast
2:53 AM 51.1 °F 46.9 °F 86% 30.12 in 10.0 mi West 11.5 mph - N/A   Overcast
3:53 AM 50.0 °F 46.0 °F 86% 30.11 in 10.0 mi West 8.1 mph - N/A   Overcast
4:53 AM 50.0 °F 46.0 °F 86% 30.11 in 10.0 mi WNW 6.9 mph - N/A   Overcast
5:53 AM 50.0 °F 45.0 °F 83% 30.10 in 10.0 mi West 10.4 mph - N/A   Overcast
6:53 AM 50.0 °F 46.0 °F 86% 30.11 in 10.0 mi WNW 6.9 mph - N/A   Overcast
7:53 AM 51.8 °F 44.6 °F 76% 30.13 in 10.0 mi West 9.2 mph - N/A   Overcast
8:53 AM 52.0 °F 46.9 °F 83% 30.14 in 10.0 mi WSW 6.9 mph - N/A   Overcast
9:53 AM 54.0 °F 46.9 °F 77% 30.14 in 10.0 mi NW 6.9 mph - N/A   Overcast
10:53 AM 55.0 °F 48.0 °F 77% 30.14 in 10.0 mi WNW 5.8 mph - N/A   Overcast
11:53 AM 55.0 °F 48.0 °F 77% 30.13 in 10.0 mi West 5.8 mph - N/A   Overcast
12:53 PM 55.0 °F 50.0 °F 83% 30.12 in 10.0 mi West 11.5 mph - N/A   Overcast
1:17 PM 57.2 °F 50.0 °F 77% 30.11 in 10.0 mi West 10.4 mph - N/A   Mostly Cloudy
1:53 PM 57.0 °F 51.1 °F 81% 30.11 in 10.0 mi Variable 5.8 mph - N/A   Overcast
2:53 PM 57.0 °F 51.1 °F 81% 30.10 in 10.0 mi West 15.0 mph - N/A   Mostly Cloudy
3:22 PM 57.2 °F 51.8 °F 82% 30.11 in 10.0 mi West 15.0 mph - N/A   Mostly Cloudy
3:53 PM 57.0 °F 52.0 °F 83% 30.11 in 10.0 mi West 13.8 mph - N/A   Mostly Cloudy
4:53 PM 55.9 °F 53.1 °F 90% 30.12 in 10.0 mi West 11.5 mph - N/A   Scattered Clouds
5:14 PM 55.4 °F 51.8 °F 88% 30.11 in 10.0 mi West 13.8 mph - N/A   Scattered Clouds
5:53 PM 54.0 °F 53.1 °F 97% 30.12 in 10.0 mi West 13.8 mph - N/A   Scattered Clouds
6:53 PM 53.1 °F 52.0 °F 96% 30.12 in 10.0 mi WNW 6.9 mph - N/A   Partly Cloudy
7:53 PM 52.0 °F 52.0 °F 100% 30.13 in 10.0 mi West 11.5 mph - N/A   Partly Cloudy
8:53 PM 51.1 °F 51.1 °F 100% 30.15 in 10.0 mi WNW 10.4 mph - N/A   Partly Cloudy
9:53 PM 50.0 °F 48.9 °F 96% 30.16 in 10.0 mi WNW 5.8 mph - N/A   Partly Cloudy
10:53 PM 48.2 °F 48.2 °F 100% 30.17 in 10.0 mi Calm Calm - N/A   Partly Cloudy
11:53 PM 46.9 °F 46.9 °F 100% 30.18 in 10.0 mi NNW 3.5 mph - N/A   Clear